Location: Ferris
(32.5340°N, 96.6656°W)
Time: 04:14:08
(UTC+00:00)

ISS - Visible Passes

Search period start: 12 May 2026 00:00
Search period end: 22 May 2026 00:00
Orbit: 414 x 424 km, 51.6° (Epoch: 11 May)

Date Brightness Start Highest point End Pass type
(mag) Time Alt. Az. Time Alt. Az. Time Alt. Az.
12 May -1.2 01:50:57 10° W 01:53:46 25° NW 01:56:36 10° NNE visible
14 May -0.3 01:54:55 10° NW 01:55:38 11° NNW 01:56:22 10° NNW visible
21 May -0.4 04:27:56 10° NNW 04:28:23 12° NNW 04:28:23 12° NNW visible
